TimeEST,TemperatureF,Dew PointF,Humidity,Sea Level PressureIn,VisibilityMPH,Wind Direction,Wind SpeedMPH,Gust SpeedMPH,PrecipitationIn,Events,Conditions,WindDirDegrees,DateUTC
12:53 AM,52.0,37.0,57,30.12,10.0,East,9.2,-,N/A,,Partly Cloudy,80,2013-02-22 05:53:00
1:53 AM,51.1,39.0,63,30.15,10.0,East,5.8,-,N/A,,Mostly Cloudy,80,2013-02-22 06:53:00
2:53 AM,51.1,37.0,59,30.16,10.0,NE,10.4,-,N/A,,Overcast,40,2013-02-22 07:53:00
3:53 AM,51.1,35.1,54,30.16,10.0,NE,11.5,-,N/A,,Overcast,40,2013-02-22 08:53:00
4:53 AM,50.0,32.0,50,30.14,10.0,NE,11.5,-,0.00,Rain,Light Rain,50,2013-02-22 09:53:00
5:53 AM,45.0,37.0,74,30.13,6.0,ENE,11.5,-,0.11,Rain,Rain,70,2013-02-22 10:53:00
6:37 AM,44.6,37.4,76,30.17,5.0,ENE,8.1,-,0.15,Rain,Rain,60,2013-02-22 11:37:00
6:53 AM,43.0,39.0,86,30.19,5.0,NE,6.9,-,0.20,Rain,Heavy Rain,40,2013-02-22 11:53:00
7:21 AM,42.8,39.2,87,30.18,5.0,ENE,12.7,-,0.09,Rain,Rain,70,2013-02-22 12:21:00
7:53 AM,41.0,37.9,89,30.18,3.0,East,12.7,18.4,0.22,Rain,Rain,80,2013-02-22 12:53:00
8:05 AM,41.0,37.4,87,30.17,2.5,East,10.4,-,0.05,Rain,Heavy Rain,90,2013-02-22 13:05:00
8:40 AM,42.8,39.2,87,30.16,5.0,East,8.1,-,0.10,Rain,Light Rain,90,2013-02-22 13:40:00
8:53 AM,42.1,39.9,92,30.16,6.0,ESE,6.9,-,0.10,Rain,Light Rain,110,2013-02-22 13:53:00
9:33 AM,42.8,41.0,93,30.17,4.0,East,6.9,-,0.05,Rain,Light Rain,80,2013-02-22 14:33:00
9:53 AM,44.1,42.1,93,30.18,4.0,NE,6.9,-,0.08,Rain,Rain,50,2013-02-22 14:53:00
10:53 AM,44.1,42.1,93,30.18,4.0,NE,8.1,-,0.03,Rain,Light Rain,50,2013-02-22 15:53:00
11:53 AM,44.1,42.1,93,30.17,7.0,NE,8.1,-,0.01,Rain,Light Rain,40,2013-02-22 16:53:00
12:53 PM,44.1,41.0,89,30.15,9.0,NNE,8.1,-,0.00,,Overcast,20,2013-02-22 17:53:00
1:04 PM,44.6,41.0,87,30.15,2.5,NNE,8.1,-,0.01,Rain,Rain,30,2013-02-22 18:04:00
1:19 PM,44.6,41.0,87,30.15,4.0,North,8.1,-,0.01,Rain,Light Rain,10,2013-02-22 18:19:00
1:53 PM,43.0,41.0,93,30.14,5.0,NNE,8.1,-,0.01,,Overcast,30,2013-02-22 18:53:00
2:53 PM,43.0,39.9,89,30.13,6.0,NNE,6.9,-,N/A,,Overcast,30,2013-02-22 19:53:00
3:53 PM,42.1,39.9,92,30.12,5.0,NNE,9.2,-,0.01,,Overcast,20,2013-02-22 20:53:00
4:17 PM,42.8,39.2,87,30.11,2.5,NE,10.4,-,N/A,,Overcast,40,2013-02-22 21:17:00
4:25 PM,42.8,39.2,87,30.10,3.0,NE,10.4,-,N/A,,Overcast,40,2013-02-22 21:25:00
4:53 PM,42.1,39.9,92,30.11,5.0,NE,6.9,-,N/A,,Overcast,40,2013-02-22 21:53:00
5:23 PM,42.8,39.2,87,30.11,2.5,NE,8.1,-,N/A,,Overcast,40,2013-02-22 22:23:00
5:42 PM,42.8,39.2,87,30.10,1.8,NE,9.2,-,N/A,,Overcast,40,2013-02-22 22:42:00
5:53 PM,41.0,39.9,96,30.11,1.5,NE,8.1,-,N/A,,Overcast,40,2013-02-22 22:53:00
6:12 PM,41.0,39.2,93,30.10,2.0,NE,5.8,-,N/A,,Overcast,40,2013-02-22 23:12:00
6:53 PM,41.0,39.9,96,30.10,2.0,NE,8.1,-,N/A,,Overcast,40,2013-02-22 23:53:00
7:25 PM,41.0,39.2,93,30.12,3.0,North,5.8,-,N/A,,Overcast,10,2013-02-23 00:25:00
7:53 PM,41.0,39.9,96,30.14,3.0,NNE,6.9,-,N/A,,Overcast,20,2013-02-23 00:53:00
8:17 PM,41.0,39.2,93,30.12,2.5,NE,5.8,-,N/A,,Overcast,50,2013-02-23 01:17:00
8:50 PM,41.0,39.2,93,30.13,1.5,NNE,5.8,-,N/A,,Overcast,30,2013-02-23 01:50:00
8:51 PM,41.0,39.9,96,30.13,1.5,NNE,5.8,-,N/A,,Overcast,30,2013-02-23 01:51:00
9:53 PM,41.0,39.9,96,30.14,1.5,North,5.8,-,N/A,,Overcast,350,2013-02-23 02:53:00
10:17 PM,39.2,39.2,100,30.12,2.0,NNE,8.1,-,0.00,Rain,Light Rain,20,2013-02-23 03:17:00
10:35 PM,39.2,39.2,100,30.12,3.0,NNE,5.8,-,0.00,,Overcast,30,2013-02-23 03:35:00
10:53 PM,39.9,39.0,97,30.11,3.0,NE,4.6,-,0.00,,Overcast,40,2013-02-23 03:53:00
11:53 PM,39.9,39.0,97,30.10,2.5,NE,4.6,-,N/A,,Overcast,40,2013-02-23 04:53:00